West Palm Beach, FL

7:50 PM EDT on March 26, 2017 (GMT -0400)
Palm Beach International

Weather History for KPBI - December, 2014

Change the Weather History Date:

Tuesday, December 23, 2014

  Actual Average Record
Temperature  
Mean Temperature 75 °F 67 °F  
Max Temperature 83 °F 75 °F 87 °F (1926)
Min Temperature 66 °F 59 °F 32 °F (1989)
Degree Days  
Heating Degree Days 0 2  
Month to date heating degree days 25 36  
Since 1 July heating degree days 42 48  
Cooling Degree Days 10 4  
Month to date cooling degree days 117 123  
Year to date cooling degree days 4257 3989  
Growing Degree Days 24 (Base 50)    
Moisture  
Dew Point 69 °F    
Average Humidity 83    
Maximum Humidity 100    
Minimum Humidity 65    
Precipitation  
Precipitation 0.00 in 0.11 in 2.15 in (2003)
Month to date precipitation 0.41 2.49  
Year to date precipitation 59.94 61.44  
Snow  
Snow 0.00 in - - ()
Month to date snowfall 0.0  
Since 1 July snowfall 0.0  
Snow Depth 0.00 in    
Sea Level Pressure  
Sea Level Pressure 29.95 in    
Wind  
Wind Speed 9 mph (SSE)    
Max Wind Speed 22 mph    
Max Gust Speed 28 mph    
Visibility 9 miles    
Events      
T = Trace of Precipitation, MM = Missing Value Source: NWS Daily Summary

Daily Weather History Graph

Daily Weather History Graph

Search for Another Location

Airport or City:

Trip Planner

Search our weather history database for the weather conditions in past years. The results will help you decide how hot, cold, wet, or windy it might be!

Date:

Astronomy

Dec. 23, 2014 Rise Set
Actual Time 7:05 AM EST 5:33 PM EST
Civil Twilight 6:40 AM EST 5:58 PM EST
Nautical Twilight 6:11 AM EST 6:27 PM EST
Astronomical Twilight 5:42 AM EST 6:56 PM EST
Moon 8:18 AM EST (12/23) 7:36 PM EST (12/23)
Length of Visible Light 11h 18m
Length of Day
10h 27m
Waxing Crescent, 4% of the Moon is Illuminated
Dec 23
Waxing Crescent
Dec 28
First Quarter
Jan 4
Full
Jan 13
Last Quarter
Jan 20
New

Hourly Weather History & Observations

Time (EST) Temp. Heat Index Dew Point Humidity Pressure Visibility Wind Dir Wind Speed Gust Speed Precip Events Conditions
12:43 AM 69.1 °F - 68.0 °F 96% 29.96 in 5.0 mi Calm Calm - N/A   Partly Cloudy
12:51 AM 69.8 °F - 68.0 °F 94% 29.96 in 5.0 mi Calm Calm - N/A   Clear
12:53 AM 70.0 °F - 68.0 °F 93% 29.96 in 5.0 mi Calm Calm - N/A   Clear
1:53 AM 69.1 °F - 68.0 °F 96% 29.95 in 6.0 mi Calm Calm - N/A   Scattered Clouds
2:53 AM 68.0 °F - 66.9 °F 96% 29.95 in 5.0 mi Calm Calm - N/A   Scattered Clouds
3:53 AM 68.0 °F - 66.0 °F 93% 29.93 in 7.0 mi Calm Calm - N/A   Scattered Clouds
4:53 AM 66.0 °F - 64.0 °F 93% 29.94 in 9.0 mi Calm Calm - N/A   Clear
5:53 AM 66.9 °F - 66.0 °F 97% 29.96 in 10.0 mi Calm Calm - N/A   Partly Cloudy
6:53 AM 69.1 °F - 66.9 °F 93% 29.97 in 10.0 mi Calm Calm - N/A   Scattered Clouds
7:53 AM 73.0 °F - 70.0 °F 90% 29.97 in 10.0 mi SSE 5.8 mph - N/A   Mostly Cloudy
8:53 AM 78.1 °F - 71.1 °F 79% 29.98 in 10.0 mi SSE 8.1 mph - N/A   Scattered Clouds
9:53 AM 80.1 °F 83.2 °F 70.0 °F 71% 29.98 in 10.0 mi SSE 20.7 mph 24.2 mph N/A   Scattered Clouds
10:44 AM 80.1 °F 83.2 °F 70.0 °F 71% 29.98 in 10.0 mi SSE 15.0 mph 24.2 mph N/A   Mostly Cloudy
10:53 AM 80.1 °F 83.2 °F 70.0 °F 71% 29.99 in 10.0 mi SE 18.4 mph - N/A   Mostly Cloudy
11:53 AM 81.0 °F 84.4 °F 70.0 °F 69% 29.96 in 10.0 mi SSE 18.4 mph 26.5 mph N/A   Mostly Cloudy
12:44 PM 82.0 °F 85.9 °F 70.0 °F 67% 29.95 in 10.0 mi SSE 16.1 mph 23.0 mph N/A   Mostly Cloudy
12:53 PM 82.9 °F 87.5 °F 71.1 °F 67% 29.94 in 10.0 mi SSE 17.3 mph 23.0 mph N/A   Mostly Cloudy
1:53 PM 82.0 °F 85.9 °F 70.0 °F 67% 29.93 in 10.0 mi SSE 18.4 mph - N/A   Mostly Cloudy
2:53 PM 82.0 °F 86.3 °F 71.1 °F 69% 29.91 in 10.0 mi SSE 17.3 mph 28.8 mph N/A   Mostly Cloudy
3:53 PM 80.1 °F 83.2 °F 70.0 °F 71% 29.91 in 10.0 mi SSE 16.1 mph - N/A   Mostly Cloudy
4:53 PM 79.0 °F - 70.0 °F 74% 29.93 in 10.0 mi SSE 13.8 mph 20.7 mph N/A   Mostly Cloudy
5:53 PM 78.1 °F - 70.0 °F 76% 29.93 in 10.0 mi SSE 13.8 mph - N/A   Mostly Cloudy
6:53 PM 77.0 °F - 71.1 °F 82% 29.93 in 10.0 mi SE 10.4 mph - N/A   Scattered Clouds
7:53 PM 77.0 °F - 71.1 °F 82% 29.95 in 10.0 mi SSE 6.9 mph - N/A   Mostly Cloudy
8:53 PM 77.0 °F - 72.0 °F 84% 29.95 in 10.0 mi SE 8.1 mph - N/A   Scattered Clouds
9:53 PM 75.9 °F - 73.0 °F 91% 29.95 in 10.0 mi SE 9.2 mph - N/A   Scattered Clouds
10:53 PM 75.9 °F - 71.1 °F 85% 29.95 in 10.0 mi SE 8.1 mph - N/A   Mostly Cloudy
11:53 PM 75.9 °F - 71.1 °F 85% 29.93 in 10.0 mi SE 12.7 mph - N/A   Mostly Cloudy